Weather History for El Dorado, AR

Change the Weather History Date:

Sunday, May 10, 2009

  Actual Average Record
Temperature  
Mean Temperature 67 °F 70 °F  
Max Temperature 72 °F 81 °F 91 °F (1973)
Min Temperature 62 °F 59 °F 42 °F (1906)
Degree Days  
Heating Degree Days 0 1  
Month to date heating degree days 0 11  
Since 1 July heating degree days 2598 2665  
Cooling Degree Days 2 6  
Month to date cooling degree days 69 47  
Year to date cooling degree days 209 146  
Growing Degree Days 16 (Base 50)    
Moisture  
Dew Point 64 °F    
Average Humidity 95    
Maximum Humidity 100    
Minimum Humidity 90    
Precipitation  
Precipitation 1.21 in 0.16 in 1.21 in (2009)
Month to date precipitation 6.77 1.66  
Year to date precipitation 20.63 19.59  
Snow  
Snow 0.00 in - - ()
Month to date snowfall 0.0  
Since 1 July snowfall 0.0  
Snow Depth 0.00 in    
Sea Level Pressure  
Sea Level Pressure 30.05 in    
Wind  
Wind Speed 8 mph (NE)    
Max Wind Speed 24 mph    
Max Gust Speed 33 mph    
Visibility 8 miles    
Events Rain , Thunderstorm    
T = Trace of Precipitation, MM = Missing Value Source: NWS Daily Summary

Daily Weather History Graph

Daily Weather History Graph

Search for Another Location

Airport:

Trip Planner

Search our weather history database for the weather conditions in past years. The results will help you decide how hot, cold, wet, or windy it might be!

Date:

Astronomy

May. 10, 2009 Rise Set
Actual Time 6:15 AM CDT 8:00 PM CDT
Civil Twilight 5:48 AM CDT 8:27 PM CDT
Nautical Twilight 5:15 AM CDT 9:00 PM CDT
Astronomical Twilight 4:41 AM CDT 9:34 PM CDT
Moon 9:54 PM CDT (5/10) 6:54 AM CDT (5/10)
Length of Visible Light 14h 39m
Length of Day
13h 45m
Full, 98% of the Moon is Illuminated
May 10
Full
May 17
Last Quarter
May 24
New
May 30
First Quarter
Jun 7
Full

Hourly Weather History & Observations

Time (CDT) Temp. Dew Point Humidity Pressure Visibility Wind Dir Wind Speed Gust Speed Precip Events Conditions
12:10 AM 66.2 °F 64.4 °F 94% 30.05 in 9.0 mi NNW 11.5 mph - N/A   Mostly Cloudy
12:19 AM 66.2 °F 64.4 °F 94% 30.06 in 8.0 mi NNW 8.1 mph - N/A   Mostly Cloudy
12:53 AM 66.0 °F 64.9 °F 96% 30.05 in 10.0 mi North 4.6 mph - N/A   Overcast
1:53 AM 66.0 °F 64.9 °F 96% 30.04 in 10.0 mi North 5.8 mph - N/A   Overcast
2:10 AM 66.2 °F 64.4 °F 94% 30.04 in 10.0 mi NNE 5.8 mph - N/A   Overcast
2:49 AM 66.2 °F 64.4 °F 94% 30.02 in 10.0 mi ENE 9.2 mph - N/A   Overcast
2:53 AM 66.0 °F 64.9 °F 96% 30.01 in 10.0 mi ENE 9.2 mph - N/A   Overcast
3:53 AM 66.0 °F 64.9 °F 96% 30.03 in 10.0 mi East 3.5 mph - N/A   Overcast
4:22 AM 66.2 °F 64.4 °F 94% 30.04 in 10.0 mi East 3.5 mph - N/A   Overcast
4:53 AM 66.2 °F 64.4 °F 94% 30.05 in 10.0 mi NNE 5.8 mph - N/A   Overcast
5:11 AM 66.2 °F 64.4 °F 94% 30.05 in 10.0 mi NNE 5.8 mph - N/A   Overcast
5:53 AM 66.0 °F 64.9 °F 96% 30.04 in 9.0 mi ENE 5.8 mph - 0.00 in   Overcast
6:53 AM 66.0 °F 64.9 °F 96% 30.06 in 10.0 mi NE 5.8 mph - 0.00 in   Overcast
7:53 AM 64.9 °F 64.0 °F 97% 30.09 in 8.0 mi North 10.4 mph - N/A   Overcast
8:31 AM 66.2 °F 62.6 °F 88% 30.11 in 10.0 mi NE 6.9 mph - N/A   Overcast
8:36 AM 66.2 °F 62.6 °F 88% 30.11 in 10.0 mi NE 6.9 mph - N/A Thunderstorm Overcast
8:53 AM 66.0 °F 63.0 °F 90% 30.10 in 10.0 mi East 4.6 mph - 0.00 in Rain , Thunderstorm Light Thunderstorms and Rain
9:31 AM 66.2 °F 64.4 °F 94% 30.11 in 10.0 mi NE 5.8 mph - 0.02 in Thunderstorm Overcast
9:38 AM 66.2 °F 64.4 °F 94% 30.11 in 10.0 mi ENE 6.9 mph - 0.02 in   Overcast
9:49 AM 66.2 °F 64.4 °F 94% 30.12 in 10.0 mi North 3.5 mph - 0.02 in   Overcast
9:53 AM 66.0 °F 64.0 °F 93% 30.11 in 10.0 mi North 5.8 mph - 0.02 in   Overcast
10:16 AM 66.2 °F 64.4 °F 94% 30.11 in 10.0 mi NNE 6.9 mph - N/A   Overcast
10:44 AM 66.2 °F 64.4 °F 94% 30.10 in 10.0 mi ESE 8.1 mph - N/A Thunderstorm Overcast
10:53 AM 66.9 °F 64.0 °F 90% 30.09 in 10.0 mi Variable 6.9 mph - 0.00 in Rain , Thunderstorm Light Rain
11:01 AM 66.2 °F 64.4 °F 94% 30.11 in 10.0 mi North 9.2 mph - 0.00 in Rain Light Rain
11:18 AM 66.2 °F 64.4 °F 94% 30.10 in 10.0 mi East 4.6 mph - 0.00 in Rain , Thunderstorm Light Rain
11:34 AM 64.4 °F 64.4 °F 100% 30.11 in 1.8 mi Variable 5.8 mph - 0.10 in Rain , Thunderstorm Heavy Thunderstorms and Rain
11:44 AM 64.4 °F 64.4 °F 100% 30.09 in 1.8 mi East 9.2 mph - 0.17 in Rain , Thunderstorm Heavy Thunderstorms and Rain
11:51 AM 66.2 °F 64.4 °F 94% 30.08 in 2.5 mi East 8.1 mph - 0.19 in Rain , Thunderstorm Thunderstorms and Rain
11:52 AM 66.0 °F 64.9 °F 96% 30.07 in 3.0 mi East 6.9 mph - 0.19 in Rain , Thunderstorm Light Thunderstorms and Rain
12:04 PM 66.2 °F 64.4 °F 94% 30.05 in 10.0 mi ESE 11.5 mph - 0.00 in Thunderstorm Mostly Cloudy
12:13 PM 66.2 °F 64.4 °F 94% 30.05 in 10.0 mi ESE 9.2 mph 18.4 mph 0.00 in   Mostly Cloudy
12:53 PM 70.0 °F 66.0 °F 87% 30.04 in 10.0 mi SSE 9.2 mph - 0.00 in   Mostly Cloudy
1:29 PM 71.6 °F 66.2 °F 83% 30.03 in 10.0 mi SSE 11.5 mph - N/A Thunderstorm Thunderstorm
1:53 PM 71.1 °F 66.9 °F 87% 30.04 in 4.0 mi Calm Calm - 0.03 in Rain , Thunderstorm Light Thunderstorms and Rain
1:55 PM 69.8 °F 66.2 °F 88% 30.04 in 2.5 mi Calm Calm - 0.04 in Rain , Thunderstorm Light Thunderstorms and Rain
1:58 PM 69.8 °F 68.0 °F 94% 30.05 in 1.8 mi Calm Calm - 0.07 in Rain , Thunderstorm Heavy Thunderstorms and Rain
2:11 PM 68.0 °F 66.2 °F 94% 30.04 in 0.8 mi North 5.8 mph - 0.38 in Rain , Thunderstorm Heavy Thunderstorms and Rain
2:15 PM 68.0 °F 68.0 °F 100% 30.05 in 1.0 mi North 4.6 mph - 0.42 in Rain , Thunderstorm Heavy Thunderstorms and Rain
2:22 PM 68.0 °F 66.2 °F 94% 30.05 in 2.0 mi NNE 5.8 mph - 0.44 in Rain , Thunderstorm Thunderstorms and Rain
2:26 PM 68.0 °F 66.2 °F 94% 30.05 in 3.0 mi North 8.1 mph - 0.45 in Rain , Thunderstorm Thunderstorms and Rain
2:49 PM 69.8 °F 68.0 °F 94% 30.05 in 6.0 mi North 10.4 mph 16.1 mph 0.47 in Rain , Thunderstorm Light Thunderstorms and Rain
2:53 PM 69.1 °F 66.9 °F 93% 30.05 in 7.0 mi North 12.7 mph - 0.47 in Rain , Thunderstorm Light Rain
3:07 PM 68.0 °F 66.2 °F 94% 30.06 in 7.0 mi North 9.2 mph - 0.00 in Rain Light Rain
3:40 PM 66.2 °F 64.4 °F 94% 30.03 in 6.0 mi North 9.2 mph - 0.07 in Rain Light Rain
3:53 PM 66.9 °F 64.9 °F 93% 30.04 in 9.0 mi North 11.5 mph 16.1 mph 0.07 in Rain Light Rain
4:27 PM 66.2 °F 64.4 °F 94% 30.05 in 9.0 mi NNE 5.8 mph - 0.00 in Rain Light Rain
4:43 PM 66.2 °F 64.4 °F 94% 30.07 in 8.0 mi NW 11.5 mph - 0.02 in Rain , Thunderstorm Light Thunderstorms and Rain
4:51 PM 66.2 °F 64.4 °F 94% 30.09 in 1.2 mi NNW 18.4 mph 27.6 mph 0.25 in Rain , Thunderstorm Heavy Thunderstorms and Rain
4:53 PM 66.0 °F 64.0 °F 93% 30.07 in 0.8 mi NNW 24.2 mph 33.4 mph 0.31 in Rain , Thunderstorm Heavy Thunderstorms and Rain
5:04 PM 64.4 °F 62.6 °F 94% 30.07 in 2.0 mi North 11.5 mph 33.4 mph 0.05 in Rain , Thunderstorm Thunderstorms and Rain
5:07 PM 64.4 °F 62.6 °F 94% 30.06 in 3.0 mi North 12.7 mph 24.2 mph 0.05 in Rain , Thunderstorm Thunderstorms and Rain
5:14 PM 64.4 °F 62.6 °F 94% 30.06 in 3.0 mi NE 9.2 mph 20.7 mph 0.09 in Rain , Thunderstorm Thunderstorms and Rain
5:28 PM 64.4 °F 62.6 °F 94% 30.02 in 9.0 mi ENE 10.4 mph - 0.12 in Rain Light Rain
5:38 PM 64.4 °F 64.4 °F 100% 30.00 in 10.0 mi East 8.1 mph - 0.12 in Rain Light Rain
5:51 PM 64.4 °F 62.6 °F 94% 29.98 in 10.0 mi East 9.2 mph - 0.12 in   Scattered Clouds
5:53 PM 64.9 °F 63.0 °F 93% 29.96 in 10.0 mi East 10.4 mph - 0.12 in   Scattered Clouds
6:53 PM 66.0 °F 64.0 °F 93% 29.97 in 10.0 mi South 5.8 mph - N/A   Partly Cloudy
7:53 PM 66.0 °F 64.0 °F 93% 30.00 in 10.0 mi North 8.1 mph - N/A   Mostly Cloudy
8:01 PM 66.2 °F 64.4 °F 94% 30.00 in 10.0 mi North 8.1 mph - N/A   Mostly Cloudy
8:20 PM 64.4 °F 64.4 °F 100% 30.01 in 10.0 mi NNE 5.8 mph - N/A   Overcast
8:53 PM 64.0 °F 62.1 °F 93% 30.03 in 10.0 mi NNE 8.1 mph - N/A   Overcast
9:20 PM 64.4 °F 62.6 °F 94% 30.04 in 10.0 mi NE 4.6 mph - 0.00 in Rain Light Rain
9:53 PM 63.0 °F 62.1 °F 97% 30.04 in 10.0 mi NNE 5.8 mph - 0.00 in Rain Light Rain
10:32 PM 62.6 °F 60.8 °F 94% 30.04 in 10.0 mi NE 6.9 mph - 0.00 in Thunderstorm Overcast
10:53 PM 63.0 °F 61.0 °F 93% 30.06 in 9.0 mi NNW 8.1 mph - 0.00 in Thunderstorm Overcast
11:08 PM 62.6 °F 60.8 °F 94% 30.06 in 8.0 mi North 8.1 mph - N/A   Overcast
11:17 PM 62.6 °F 60.8 °F 94% 30.06 in 7.0 mi North 9.2 mph - N/A Thunderstorm Thunderstorm
11:53 PM 62.1 °F 61.0 °F 96% 30.05 in 10.0 mi NNE 5.8 mph - 0.00 in Thunderstorm Overcast